• In Hungary
  • List of Countries
  • For 7 days
  • Water Temperature
  • Satellite Maps
  • Weather Map
  • News
  • Weather Widgets
  • user-avatar
    Login

    Hourly Weather Puerto Colombia

    Today, 16 December, Saturday

    Time Temperature Precipitation Wind Pressure Humidity
    00:00 +23°C° 0 mm 4 mps 732 mmHg 90%
    01:00 +23°C° 0 mm 4 mps 732 mmHg 90%
    02:00 +24°C° 0 mm 3 mps 732 mmHg 90%
    03:00 +24°C° 0 mm 3 mps 732 mmHg 90%
    04:00 +22°C° 0 mm 3 mps 732 mmHg 90%
    05:00 +24°C° 0 mm 3 mps 732 mmHg 87%
    06:00 +25°C° 0 mm 3 mps 733 mmHg 85%
    07:00 +26°C° 0 mm 3 mps 733 mmHg 81%
    08:00 +27°C° 0 mm 3 mps 733 mmHg 76%
    09:00 +28°C° 0 mm 3 mps 733 mmHg 70%
    10:00 +29°C° 0 mm 3 mps 733 mmHg 65%
    11:00 +30°C° 0 mm 4 mps 733 mmHg 62%
    12:00 +32°C° 0 mm 4 mps 732 mmHg 60%
    13:00 +32°C° 0 mm 4 mps 732 mmHg 57%
    14:00 +30°C° 0 mm 4 mps 731 mmHg 62%
    15:00 +30°C° 0 mm 4 mps 731 mmHg 67%
    16:00 +29°C° 0 mm 4 mps 730 mmHg 73%
    17:00 +27°C° 0 mm 4 mps 730 mmHg 78%
    18:00 +26°C° 0 mm 4 mps 731 mmHg 84%
    19:00 +25°C° 0 mm 4 mps 731 mmHg 89%
    20:00 +25°C° 0 mm 4 mps 731 mmHg 90%
    21:00 +25°C° 0 mm 4 mps 731 mmHg 90%
    22:00 +25°C° 0 mm 4 mps 732 mmHg 91%
    23:00 +25°C° 0.1 mm 4 mps 731 mmHg 91%

    Tomorrow, 17 December, Sunday

    Time Temperature Precipitation Wind Pressure Humidity
    00:00 +25°C° 0.1 mm 4 mps 731 mmHg 91%
    01:00 +25°C° 0.1 mm 4 mps 731 mmHg 91%
    02:00 +25°C° 0.1 mm 4 mps 731 mmHg 91%
    03:00 +25°C° 0.1 mm 4 mps 731 mmHg 90%
    04:00 +25°C° 0.1 mm 4 mps 731 mmHg 90%
    05:00 +25°C° 0.3 mm 4 mps 732 mmHg 89%
    06:00 +25°C° 0.3 mm 4 mps 732 mmHg 89%
    07:00 +25°C° 0.3 mm 4 mps 733 mmHg 88%
    08:00 +26°C° 0.3 mm 4 mps 733 mmHg 84%
    09:00 +27°C° 0.3 mm 4 mps 733 mmHg 81%
    10:00 +28°C° 0.3 mm 4 mps 734 mmHg 77%
    11:00 +29°C° 0 mm 4 mps 733 mmHg 69%
    12:00 +30°C° 0 mm 4 mps 732 mmHg 61%
    13:00 +33°C° 0 mm 4 mps 732 mmHg 54%
    14:00 +32°C° 0.1 mm 4 mps 731 mmHg 59%
    15:00 +30°C° 0.1 mm 4 mps 731 mmHg 65%
    16:00 +29°C° 0.1 mm 4 mps 730 mmHg 71%
    17:00 +28°C° 0 mm 4 mps 730 mmHg 77%
    18:00 +27°C° 0 mm 4 mps 731 mmHg 83%
    19:00 +25°C° 0 mm 4 mps 731 mmHg 89%
    20:00 +25°C° 0.1 mm 4 mps 731 mmHg 90%
    21:00 +25°C° 0.1 mm 4 mps 732 mmHg 90%
    22:00 +25°C° 0.1 mm 4 mps 732 mmHg 91%
    23:00 +25°C° 0.1 mm 4 mps 732 mmHg 91%

    Day after tomorrow, 18 December, Monday

    Time Temperature Precipitation Wind Pressure Humidity
    00:00 +25°C° 0.1 mm 4 mps 731 mmHg 92%
    01:00 +25°C° 0.1 mm 4 mps 731 mmHg 92%
    02:00 +25°C° 0.2 mm 4 mps 731 mmHg 92%
    03:00 +25°C° 0.2 mm 4 mps 731 mmHg 92%
    04:00 +23°C° 0.2 mm 4 mps 731 mmHg 93%
    05:00 +25°C° 0.1 mm 4 mps 731 mmHg 91%
    06:00 +25°C° 0.1 mm 4 mps 732 mmHg 89%
    07:00 +26°C° 0.1 mm 4 mps 733 mmHg 88%
    08:00 +27°C° 0 mm 4 mps 733 mmHg 81%
    09:00 +28°C° 0 mm 4 mps 733 mmHg 73%
    10:00 +30°C° 0 mm 4 mps 734 mmHg 66%
    11:00 +30°C° 0 mm 4 mps 733 mmHg 64%
    12:00 +32°C° 0 mm 4 mps 732 mmHg 62%
    13:00 +32°C° 0 mm 4 mps 731 mmHg 61%
    14:00 +30°C° 0 mm 4 mps 731 mmHg 65%
    15:00 +30°C° 0 mm 4 mps 731 mmHg 69%
    16:00 +29°C° 0 mm 4 mps 730 mmHg 73%
    17:00 +28°C° 0 mm 4 mps 731 mmHg 78%
    18:00 +27°C° 0 mm 4 mps 731 mmHg 83%
    19:00 +26°C° 0 mm 4 mps 732 mmHg 89%
    20:00 +25°C° 0.1 mm 4 mps 732 mmHg 89%
    21:00 +25°C° 0.1 mm 4 mps 732 mmHg 90%
    22:00 +25°C° 0.1 mm 4 mps 733 mmHg 90%
    23:00 +25°C° 0.1 mm 4 mps 732 mmHg 91%

    19 December, Tuesday

    Time Temperature Precipitation Wind Pressure Humidity
    00:00 +25°C° 0.1 mm 4 mps 732 mmHg 92%
    01:00 +25°C° 0.1 mm 3 mps 732 mmHg 92%
    02:00 +24°C° 0.1 mm 3 mps 732 mmHg 92%
    03:00 +24°C° 0.1 mm 3 mps 731 mmHg 92%
    04:00 +24°C° 0.1 mm 3 mps 731 mmHg 92%
    05:00 +25°C° 0 mm 3 mps 732 mmHg 90%
    06:00 +25°C° 0 mm 3 mps 732 mmHg 88%
    07:00 +26°C° 0 mm 3 mps 733 mmHg 86%
    08:00 +27°C° 0 mm 3 mps 733 mmHg 80%
    09:00 +28°C° 0 mm 3 mps 733 mmHg 74%
    10:00 +29°C° 0 mm 3 mps 733 mmHg 68%
    11:00 +30°C° 0 mm 4 mps 733 mmHg 66%
    12:00 +30°C° 0 mm 4 mps 732 mmHg 65%
    13:00 +32°C° 0 mm 4 mps 731 mmHg 63%
    14:00 +30°C° 0.1 mm 4 mps 731 mmHg 67%
    15:00 +29°C° 0.1 mm 4 mps 730 mmHg 72%
    16:00 +28°C° 0.1 mm 4 mps 730 mmHg 76%
    17:00 +27°C° 0.1 mm 4 mps 730 mmHg 81%
    18:00 +26°C° 0.1 mm 4 mps 731 mmHg 85%
    19:00 +25°C° 0.1 mm 4 mps 731 mmHg 89%
    20:00 +25°C° 0.1 mm 4 mps 731 mmHg 90%
    21:00 +25°C° 0.1 mm 4 mps 732 mmHg 91%
    22:00 +25°C° 0.1 mm 4 mps 732 mmHg 91%
    23:00 +25°C° 0.1 mm 4 mps 732 mmHg 91%

    20 December, Wednesday

    Time Temperature Precipitation Wind Pressure Humidity
    00:00 +25°C° 0.1 mm 4 mps 731 mmHg 91%
    01:00 +25°C° 0.1 mm 3 mps 731 mmHg 91%
    02:00 +24°C° 0.1 mm 3 mps 731 mmHg 91%
    03:00 +24°C° 0.1 mm 3 mps 731 mmHg 92%
    04:00 +24°C° 0.1 mm 3 mps 731 mmHg 92%
    05:00 +25°C° 0 mm 3 mps 731 mmHg 90%
    06:00 +25°C° 0 mm 3 mps 732 mmHg 87%
    07:00 +26°C° 0 mm 3 mps 732 mmHg 85%
    08:00 +27°C° 0 mm 3 mps 732 mmHg 78%
    09:00 +28°C° 0 mm 3 mps 733 mmHg 72%
    10:00 +30°C° 0 mm 3 mps 733 mmHg 66%
    11:00 +30°C° 0 mm 3 mps 732 mmHg 64%
    12:00 +32°C° 0 mm 4 mps 731 mmHg 63%
    13:00 +32°C° 0 mm 4 mps 730 mmHg 61%
    14:00 +30°C° 0 mm 4 mps 730 mmHg 66%
    15:00 +29°C° 0 mm 4 mps 729 mmHg 71%
    16:00 +28°C° 0 mm 4 mps 729 mmHg 76%
    17:00 +28°C° 0 mm 4 mps 729 mmHg 80%
    18:00 +27°C° 0 mm 4 mps 730 mmHg 85%
    19:00 +26°C° 0 mm 4 mps 730 mmHg 90%
    20:00 +25°C° 0.1 mm 4 mps 730 mmHg 90%
    21:00 +25°C° 0.1 mm 4 mps 731 mmHg 91%
    22:00 +25°C° 0.1 mm 4 mps 731 mmHg 91%
    23:00 +25°C° 0.1 mm 4 mps 731 mmHg 91%

    21 December, Thursday

    Time Temperature Precipitation Wind Pressure Humidity
    00:00 +25°C° 0.1 mm 4 mps 730 mmHg 91%
    01:00 +25°C° 0.1 mm 3 mps 730 mmHg 90%
    02:00 +25°C° 0.1 mm 3 mps 730 mmHg 91%
    03:00 +25°C° 0.1 mm 3 mps 730 mmHg 91%
    04:00 +24°C° 0.1 mm 3 mps 730 mmHg 91%
    05:00 +25°C° 0.2 mm 3 mps 731 mmHg 89%
    06:00 +25°C° 0.2 mm 3 mps 731 mmHg 87%
    07:00 +26°C° 0.2 mm 3 mps 732 mmHg 85%
    08:00 +27°C° 0.1 mm 3 mps 732 mmHg 78%
    09:00 +29°C° 0.1 mm 4 mps 732 mmHg 71%
    10:00 +30°C° 0.1 mm 4 mps 733 mmHg 64%
    11:00 +30°C° 0.3 mm 4 mps 732 mmHg 65%
    12:00 +30°C° 0.3 mm 4 mps 731 mmHg 67%
    13:00 +30°C° 0.3 mm 4 mps 730 mmHg 69%
    14:00 +30°C° 0.1 mm 4 mps 730 mmHg 71%
    15:00 +29°C° 0.1 mm 4 mps 729 mmHg 73%
    16:00 +29°C° 0.1 mm 4 mps 729 mmHg 75%
    17:00 +28°C° 0 mm 4 mps 730 mmHg 79%
    18:00 +27°C° 0 mm 4 mps 730 mmHg 84%
    19:00 +26°C° 0 mm 4 mps 731 mmHg 89%
    20:00 +25°C° 0 mm 4 mps 731 mmHg 89%
    21:00 +25°C° 0 mm 4 mps 731 mmHg 90%
    22:00 +25°C° 0 mm 4 mps 731 mmHg 90%
    23:00 +25°C° 0.1 mm 4 mps 731 mmHg 90%
    Show more